Location: Unspecified
(0.0000°N, 0.0000°E)
Time: 23:17:54
(UTC+00:00)

Vanguard 2 - Pass Details

Date: 14 December 2017
Orbit: 552 x 2940 km, 32.9° (Epoch: 16 January)

Event Time Altitude Azimuth Distance (km) Brightness Sun altitude
Rises 21:46:18 0° 329° (NNW) 2,797 - -51.0°
Reaches altitude 10° 21:48:38 10° 344° (NNW) 2,021 - -51.5°
Maximum altitude 21:52:25 25° 41° (NE) 1,510 - -52.2°
Drops below altitude 10° 21:57:31 10° 95° (E) 2,790 - -53.2°
Sets 22:01:23 0° 106° (ESE) 4,160 - -53.9°
